User: anonymous
Location: Caltech
(34.1382°N, 118.1253°W)
Time: 00:20:41
(UTC-07:00)
Language:

Cosmos 1125 Rocket - Orbit

View from above orbital plane
View from above orbital plane
View from above satellite
View from above satellite

Ground track
Ground track

The orbit data is extracted from the following two-line orbital elements,

1 11511U 79078B   14110.52879509  .00000354  00000-0  12954-3 0  7693
2 11511 074.0366 275.2444 0014869 079.7597 335.1912 14.36390710812961
Epoch (UTC): 20 April 2014 12:41:27
Eccentricity: 0.0014869
inclination: 74.0366°
perigee height: 760 km
apogee height: 781 km
right ascension of ascending node: 275.2444°
argument of perigee: 79.7597°
revolutions per day: 14.36390710
mean anomaly at epoch: 335.1912°
orbit number at epoch: 81296

The dashed part of the orbit path shows where the satellite is in the earth's shadow,  

DLR